sat.trackr.live / text

‹ back to catalog

LUCH 5A (SDCM/PRN 140)

NORAD 37951 · 2011-074B

PAYLOAD ACTIVE UNKNOWN

§ Identity

Operator
Country
CIS
Launch date
2011-12-11
Launch site
TYMSC
Launch vehicle
Mass (kg)
RCS (m²)
25.12

Purposes: comms, earth_obs, nav

External: N2YO · Heavens-Above · Gunter

§ Orbital elements

Epoch: 2026-09-19T18:43:09.607584Z

Period
1,436.06 min
Inclination
8.9871°
Eccentricity
0.0004041
Mean motion
1.00274105 rev/d
Perigee alt
35,768.9 km
Apogee alt
35,803.0 km
Semi-major
42,164.1 km
B*
0.0000e+0
RAAN
72.3958°
Arg perigee
124.8795°
Mean anomaly
249.1798°
Rev number
5,400

§ Raw data

LUCH 5A (SDCM/PRN 140)1 37951U 11074B   26262.77997231 -.00000050  00000+0  00000+0 0  99952 37951   8.9871  72.3958 0004041 124.8795 249.1798  1.00274105 54008

JSON: /api/v1/satellites/37951 · /tle

For live sub-satellite position, see the globe view (requires WebGL).

§ Visibility from observer

Set your observer location to see the next 7 days of passes ≥ 10°. The values pass through the URL so the page stays shareable.

No JS? Fill the form by hand. The geolocation button needs JavaScript.